Location: 22
(39.7117°N, 89.5929°W)
Time: 06:20:55
(UTC-06:00)

Explorer 7 - Visible Passes

Search period start: 05 March 2024 00:00
Search period end: 15 March 2024 01:00
Orbit: 470 x 631 km, 50.3° (Epoch: 04 March)

Date Brightness Start Highest point End Pass type
(mag) Time Alt. Az. Time Alt. Az. Time Alt. Az.
05 Mar 7.6 04:17:32 45° ENE 04:17:32 45° ENE 04:20:12 10° ENE visible
05 Mar 7.9 05:53:32 10° WNW 05:56:36 25° NNW 05:59:42 10° NE visible
06 Mar 7.9 04:12:33 37° NE 04:12:33 37° NE 04:14:53 10° NE visible
06 Mar 8.2 05:48:31 10° WNW 05:51:24 21° NNW 05:54:18 10° NE visible
07 Mar 8.2 04:07:29 30° NE 04:07:29 30° NE 04:09:30 10° NE visible
07 Mar 8.4 05:43:31 10° WNW 05:46:13 19° NNW 05:48:55 10° NE visible
08 Mar 8.5 04:02:20 25° NNE 04:02:20 25° NNE 04:04:05 10° NE visible
08 Mar 8.6 05:38:29 10° NW 05:41:01 17° N 05:43:32 10° NE visible
09 Mar 8.8 03:57:07 21° NNE 03:57:07 21° NNE 03:58:38 10° NE visible
09 Mar 8.7 05:33:25 10° NW 05:35:48 16° N 05:38:12 10° NE visible
10 Mar 9.0 04:51:51 18° NNE 04:51:51 18° NNE 04:53:09 10° NE visible
10 Mar 8.8 06:28:16 10° NW 06:30:35 16° N 06:32:54 10° NE visible
11 Mar 9.2 04:46:33 16° NNE 04:46:33 16° NNE 04:47:39 10° NE visible
11 Mar 8.8 06:23:02 10° NW 06:25:21 16° N 06:27:40 10° NE visible
12 Mar 9.3 04:41:13 15° NNE 04:41:13 15° NNE 04:42:09 10° NE visible
12 Mar 8.9 06:17:43 10° NW 06:20:06 16° N 06:22:29 10° NE visible
13 Mar 9.4 04:35:52 14° NNE 04:35:52 14° NNE 04:36:40 10° NE visible
13 Mar 8.8 06:12:19 10° NW 06:14:49 17° N 06:17:19 10° NE visible
14 Mar 9.5 04:30:30 13° NNE 04:30:30 13° NNE 04:31:12 10° NE visible
14 Mar 8.8 06:06:50 10° NW 06:09:31 19° NNE 06:12:11 10° ENE visible
